| time (UTC) | temp F | wind direction | speed MPH | gust MPH | rain 1hr in | rain 24hr in | rain mn in | humidity % | barometer mb |
| 20260504151103 | 72 | 228 | 4.0 | 7.0 | 0.00 | 0.00 | 0.00 | 51 | 1008.7 |
| 20260504150601 | 72 | 275 | 3.0 | 9.0 | 0.00 | 0.00 | 0.00 | 52 | 1008.8 |
| 20260504141026 | 69 | 304 | 4.0 | 6.0 | 0.00 | 0.00 | 0.00 | 55 | 1009.2 |
| 20260504140523 | 69 | 299 | 5.0 | 8.0 | 0.00 | 0.00 | 0.00 | 55 | 1009.2 |
| 20260504130447 | 65 | 216 | 3.0 | 8.0 | 0.00 | 0.00 | 0.00 | 59 | 1009.4 |
| 20260504110334 | 64 | 263 | 1.0 | 6.0 | 0.00 | 0.00 | 0.00 | 58 | 1009.6 |
| 20260504100246 | 65 | 294 | 3.0 | 7.0 | 0.00 | 0.00 | 0.00 | 52 | 1010.1 |
| 20260504081639 | 67 | 230 | 3.0 | 7.0 | 0.00 | 0.00 | 0.00 | 47 | 1011.0 |
| 20260504081135 | 68 | 221 | 3.0 | 10.0 | 0.00 | 0.00 | 0.00 | 47 | 1011.0 |
| 20260504080632 | 68 | 221 | 3.0 | 10.0 | 0.00 | 0.00 | 0.00 | 47 | 1011.0 |
| 20260504080128 | 68 | 263 | 2.0 | 6.0 | 0.00 | 0.00 | 0.00 | 47 | 1011.0 |
| 20260504050445 | 70 | 153 | 3.0 | 10.0 | 0.00 | 0.00 | 0.00 | 43 | 1013.1 |
| 20260504045942 | 70 | 27 | 4.0 | 9.0 | 0.00 | 0.00 | 0.00 | 42 | 1013.1 |
| 20260504045437 | 70 | 256 | 6.0 | 9.0 | 0.00 | 0.00 | 0.00 | 42 | 1013.0 |
| 20260504044933 | 70 | 30 | 4.0 | 7.0 | 0.00 | 0.00 | 0.00 | 42 | 1013.1 |
| 20260504044431 | 70 | 258 | 3.0 | 6.0 | 0.00 | 0.00 | 0.00 | 42 | 1013.2 |
| 20260504043928 | 71 | 210 | 3.0 | 11.0 | 0.00 | 0.00 | 0.00 | 42 | 1013.1 |
| 20260504043425 | 71 | 247 | 4.0 | 7.0 | 0.00 | 0.00 | 0.00 | 42 | 1013.1 |
| 20260504042918 | 71 | 226 | 4.0 | 4.0 | 0.00 | 0.00 | 0.00 | 42 | 1013.1 |
| 20260504042414 | 71 | 249 | 5.0 | 8.0 | 0.00 | 0.00 | 0.00 | 42 | 1013.1 |
| 20260504041910 | 71 | 216 | 2.0 | 6.0 | 0.00 | 0.00 | 0.00 | 41 | 1013.1 |
| 20260504041406 | 71 | 231 | 4.0 | 9.0 | 0.00 | 0.00 | 0.00 | 41 | 1013.1 |
| 20260504040903 | 71 | 254 | 5.0 | 7.0 | 0.00 | 0.00 | 0.00 | 41 | 1013.3 |
| 20260504040400 | 71 | 238 | 2.0 | 13.0 | 0.00 | 0.00 | 0.00 | 41 | 1013.3 |
| 20260504035856 | 72 | 45 | 3.0 | 8.0 | 0.00 | 0.00 | 0.00 | 40 | 1013.2 |
| 20260504035354 | 72 | 209 | 2.0 | 7.0 | 0.00 | 0.00 | 0.00 | 40 | 1013.4 |
| 20260504034850 | 72 | 240 | 2.0 | 9.0 | 0.00 | 0.00 | 0.00 | 40 | 1013.4 |
| 20260504034348 | 72 | 155 | 2.0 | 8.0 | 0.00 | 0.00 | 0.00 | 40 | 1013.4 |
| 20260504033844 | 72 | 353 | 4.0 | 7.0 | 0.00 | 0.00 | 0.00 | 39 | 1013.4 |
| 20260504033343 | 72 | 166 | 4.0 | 7.0 | 0.00 | 0.00 | 0.00 | 40 | 1013.4 |
| 20260504032839 | 73 | 282 | 2.0 | 11.0 | 0.00 | 0.00 | 0.00 | 39 | 1013.5 |
| 20260504032336 | 72 | 127 | 3.0 | 9.0 | 0.00 | 0.00 | 0.00 | 39 | 1013.6 |
| 20260504031833 | 73 | 248 | 1.0 | 4.0 | 0.00 | 0.00 | 0.00 | 39 | 1013.4 |
| 20260504031330 | 73 | 203 | 4.0 | 10.0 | 0.00 | 0.00 | 0.00 | 39 | 1013.4 |
| 20260504030826 | 73 | 98 | 4.0 | 11.0 | 0.00 | 0.00 | 0.00 | 38 | 1013.5 |
| 20260504030324 | 73 | 108 | 2.0 | 9.0 | 0.00 | 0.00 | 0.00 | 39 | 1013.5 |
| 20260504025820 | 74 | 275 | 2.0 | 8.0 | 0.00 | 0.00 | 0.00 | 39 | 1013.5 |
| 20260504025317 | 74 | 138 | 3.0 | 9.0 | 0.00 | 0.00 | 0.00 | 38 | 1013.4 |
| 20260504024813 | 74 | 256 | 4.0 | 9.0 | 0.00 | 0.00 | 0.00 | 38 | 1013.4 |
| 20260504024310 | 74 | 277 | 2.0 | 7.0 | 0.00 | 0.00 | 0.00 | 38 | 1013.4 |
| 20260504023807 | 74 | 273 | 3.0 | 9.0 | 0.00 | 0.00 | 0.00 | 37 | 1013.3 |
| 20260504023304 | 74 | 62 | 5.0 | 10.0 | 0.00 | 0.00 | 0.00 | 38 | 1013.3 |
| 20260504022759 | 74 | 259 | 1.0 | 3.0 | 0.00 | 0.00 | 0.00 | 37 | 1013.3 |
| 20260504022256 | 74 | 91 | 4.0 | 7.0 | 0.00 | 0.00 | 0.00 | 37 | 1013.2 |
| 20260504021753 | 74 | 261 | 2.0 | 7.0 | 0.00 | 0.00 | 0.00 | 37 | 1013.3 |
| 20260504021250 | 75 | 254 | 2.0 | 7.0 | 0.00 | 0.00 | 0.00 | 36 | 1013.1 |
| 20260504020747 | 75 | 252 | 3.0 | 9.0 | 0.00 | 0.00 | 0.00 | 36 | 1013.0 |
| 20260504020243 | 75 | 323 | 1.0 | 3.0 | 0.00 | 0.00 | 0.00 | 37 | 1013.3 |
| 20260504015739 | 75 | 165 | 6.0 | 8.0 | 0.00 | 0.00 | 0.00 | 36 | 1013.1 |
| 20260504015236 | 75 | 72 | 4.0 | 7.0 | 0.00 | 0.00 | 0.00 | 35 | 1012.8 |
| 20260504014732 | 75 | 137 | 1.0 | 9.0 | 0.00 | 0.00 | 0.00 | 35 | 1012.8 |
| 20260504014229 | 76 | 149 | 2.0 | 4.0 | 0.00 | 0.00 | 0.00 | 35 | 1012.7 |
| 20260504013727 | 76 | 264 | 4.0 | 6.0 | 0.00 | 0.00 | 0.00 | 34 | 1012.8 |
| 20260504013224 | 76 | 291 | 3.0 | 10.0 | 0.00 | 0.00 | 0.00 | 34 | 1012.8 |
| 20260504012720 | 76 | 233 | 7.0 | 9.0 | 0.00 | 0.00 | 0.00 | 33 | 1012.8 |
| 20260504012218 | 76 | 320 | 3.0 | 10.0 | 0.00 | 0.00 | 0.00 | 33 | 1012.8 |
| 20260504011715 | 77 | 185 | 3.0 | 8.0 | 0.00 | 0.00 | 0.00 | 33 | 1012.6 |
| 20260504011212 | 77 | 239 | 4.0 | 6.0 | 0.00 | 0.00 | 0.00 | 32 | 1012.8 |
| 20260504010708 | 77 | 192 | 3.0 | 7.0 | 0.00 | 0.00 | 0.00 | 32 | 1013.0 |
| 20260504010203 | 78 | 193 | 2.0 | 8.0 | 0.00 | 0.00 | 0.00 | 31 | 1013.0 |
| 20260504005700 | 78 | 187 | 2.0 | 8.0 | 0.00 | 0.00 | 0.00 | 30 | 1013.1 |
| 20260504005157 | 78 | 290 | 1.0 | 6.0 | 0.00 | 0.00 | 0.00 | 31 | 1013.0 |
| 20260504004655 | 79 | 12 | 1.0 | 6.0 | 0.00 | 0.00 | 0.00 | 30 | 1013.0 |
| 20260504004152 | 79 | 262 | 7.0 | 13.0 | 0.00 | 0.00 | 0.00 | 30 | 1013.1 |
| 20260504003648 | 79 | 276 | 4.0 | 6.0 | 0.00 | 0.00 | 0.00 | 30 | 1012.6 |
| 20260504003145 | 79 | 270 | 2.0 | 13.0 | 0.00 | 0.00 | 0.00 | 30 | 1013.2 |
| 20260504002642 | 80 | 238 | 3.0 | 6.0 | 0.00 | 0.00 | 0.00 | 30 | 1013.0 |
| 20260504002139 | 80 | 215 | 4.0 | 9.0 | 0.00 | 0.00 | 0.00 | 29 | 1013.2 |
| 20260504001637 | 80 | 241 | 5.0 | 7.0 | 0.00 | 0.00 | 0.00 | 28 | 1013.0 |
| 20260504001133 | 81 | 275 | 5.0 | 10.0 | 0.00 | 0.00 | 0.00 | 28 | 1013.3 |
| 20260504000630 | 81 | 330 | 2.0 | 7.0 | 0.00 | 0.00 | 0.00 | 28 | 1013.3 |
| 20260504000128 | 82 | 330 | 4.0 | 7.0 | 0.00 | 0.00 | 0.00 | 28 | 1013.2 |
| 20260503235626 | 82 | 205 | 2.0 | 10.0 | 0.00 | 0.00 | 0.00 | 28 | 1013.3 |
| 20260503235122 | 82 | 45 | 1.0 | 7.0 | 0.00 | 0.00 | 0.00 | 28 | 1013.4 |
| 20260503234620 | 82 | 235 | 3.0 | 6.0 | 0.00 | 0.00 | 0.00 | 27 | 1013.5 |
| 20260503234118 | 82 | 249 | 3.0 | 14.0 | 0.00 | 0.00 | 0.00 | 26 | 1013.5 |
| 20260503233615 | 82 | 238 | 4.0 | 14.0 | 0.00 | 0.00 | 0.00 | 26 | 1013.8 |
| 20260503233110 | 82 | 265 | 3.0 | 4.0 | 0.00 | 0.00 | 0.00 | 26 | 1013.5 |
| 20260503232608 | 82 | 189 | 4.0 | 9.0 | 0.00 | 0.00 | 0.00 | 27 | 1013.5 |
| 20260503232105 | 83 | 212 | 1.0 | 9.0 | 0.00 | 0.00 | 0.00 | 27 | 1013.6 |
| 20260503231603 | 83 | 231 | 5.0 | 8.0 | 0.00 | 0.00 | 0.00 | 26 | 1013.5 |
| 20260503231059 | 82 | 210 | 9.0 | 14.0 | 0.00 | 0.00 | 0.00 | 26 | 1013.6 |
| 20260503230555 | 83 | 262 | 6.0 | 10.0 | 0.00 | 0.00 | 0.00 | 26 | 1013.7 |
| 20260503230052 | 83 | 206 | 9.0 | 14.0 | 0.00 | 0.00 | 0.00 | 25 | 1013.6 |
| 20260503225549 | 83 | 48 | 2.0 | 11.0 | 0.00 | 0.00 | 0.00 | 26 | 1013.6 |
| 20260503225044 | 83 | 149 | 4.0 | 7.0 | 0.00 | 0.00 | 0.00 | 25 | 1013.6 |
| 20260503224542 | 84 | 72 | 6.0 | 13.0 | 0.00 | 0.00 | 0.00 | 25 | 1013.6 |
| 20260503224040 | 84 | 244 | 5.0 | 8.0 | 0.00 | 0.00 | 0.00 | 25 | 1013.8 |
| 20260503223538 | 84 | 285 | 2.0 | 9.0 | 0.00 | 0.00 | 0.00 | 26 | 1013.7 |
| 20260503223033 | 84 | 143 | 2.0 | 9.0 | 0.00 | 0.00 | 0.00 | 27 | 1013.6 |
| 20260503222531 | 85 | 297 | 3.0 | 8.0 | 0.00 | 0.00 | 0.00 | 26 | 1013.7 |
| 20260503222029 | 84 | 117 | 3.0 | 7.0 | 0.00 | 0.00 | 0.00 | 26 | 1013.9 |
| 20260503221527 | 84 | 265 | 3.0 | 11.0 | 0.00 | 0.00 | 0.00 | 26 | 1013.9 |
| 20260503221024 | 85 | 136 | 5.0 | 8.0 | 0.00 | 0.00 | 0.00 | 26 | 1013.8 |
| 20260503220520 | 85 | 253 | 6.0 | 10.0 | 0.00 | 0.00 | 0.00 | 26 | 1014.0 |
| 20260503220017 | 85 | 221 | 8.0 | 13.0 | 0.00 | 0.00 | 0.00 | 27 | 1014.1 |
| 20260503215514 | 84 | 223 | 4.0 | 14.0 | 0.00 | 0.00 | 0.00 | 27 | 1014.2 |
| 20260503215011 | 85 | 220 | 4.0 | 10.0 | 0.00 | 0.00 | 0.00 | 27 | 1014.2 |
| 20260503214510 | 85 | 280 | 6.0 | 9.0 | 0.00 | 0.00 | 0.00 | 27 | 1013.9 |
| 20260503214006 | 85 | 21 | 1.0 | 9.0 | 0.00 | 0.00 | 0.00 | 27 | 1013.9 |
| 20260503213504 | 85 | 39 | 2.0 | 4.0 | 0.00 | 0.00 | 0.00 | 28 | 1014.3 |
| 20260503213000 | 85 | 176 | 6.0 | 10.0 | 0.00 | 0.00 | 0.00 | 26 | 1014.4 |
| 20260503212458 | 85 | 346 | 2.0 | 7.0 | 0.00 | 0.00 | 0.00 | 25 | 1014.7 |
| 20260503211955 | 86 | 203 | 4.0 | 9.0 | 0.00 | 0.00 | 0.00 | 24 | 1014.5 |
| 20260503211452 | 85 | 185 | 4.0 | 9.0 | 0.00 | 0.00 | 0.00 | 24 | 1014.6 |
| 20260503210948 | 86 | 299 | 4.0 | 8.0 | 0.00 | 0.00 | 0.00 | 24 | 1014.8 |
| 20260503210445 | 85 | 104 | 4.0 | 11.0 | 0.00 | 0.00 | 0.00 | 26 | 1014.8 |
| 20260503205939 | 85 | 172 | 4.0 | 8.0 | 0.00 | 0.00 | 0.00 | 26 | 1014.9 |
| 20260503205437 | 86 | 354 | 1.0 | 3.0 | 0.00 | 0.00 | 0.00 | 26 | 1014.8 |
| 20260503204933 | 86 | 253 | 4.0 | 8.0 | 0.00 | 0.00 | 0.00 | 24 | 1015.0 |
| 20260503204430 | 85 | 77 | 1.0 | 6.0 | 0.00 | 0.00 | 0.00 | 27 | 1015.0 |
| 20260503203927 | 85 | 202 | 4.0 | 8.0 | 0.00 | 0.00 | 0.00 | 25 | 1015.1 |
| 20260503203425 | 85 | 327 | 4.0 | 15.0 | 0.00 | 0.00 | 0.00 | 25 | 1015.2 |
| 20260503202921 | 85 | 249 | 4.0 | 8.0 | 0.00 | 0.00 | 0.00 | 25 | 1015.4 |
| 20260503202420 | 85 | 297 | 5.0 | 7.0 | 0.00 | 0.00 | 0.00 | 25 | 1015.4 |
| 20260503201918 | 85 | 279 | 3.0 | 11.0 | 0.00 | 0.00 | 0.00 | 26 | 1015.5 |
| 20260503201414 | 85 | 196 | 3.0 | 7.0 | 0.00 | 0.00 | 0.00 | 26 | 1015.3 |
| 20260503200912 | 84 | 227 | 5.0 | 9.0 | 0.00 | 0.00 | 0.00 | 27 | 1015.7 |
| 20260503200408 | 85 | 347 | 4.0 | 8.0 | 0.00 | 0.00 | 0.00 | 28 | 1015.8 |
| 20260503195905 | 85 | 174 | 4.0 | 9.0 | 0.00 | 0.00 | 0.00 | 27 | 1015.9 |
| 20260503195402 | 85 | 146 | 6.0 | 15.0 | 0.00 | 0.00 | 0.00 | 26 | 1015.9 |
| 20260503194859 | 85 | 241 | 3.0 | 6.0 | 0.00 | 0.00 | 0.00 | 26 | 1015.7 |
| 20260503194355 | 85 | 265 | 6.0 | 14.0 | 0.00 | 0.00 | 0.00 | 25 | 1016.3 |
| 20260503193851 | 85 | 230 | 6.0 | 8.0 | 0.00 | 0.00 | 0.00 | 25 | 1016.2 |
| 20260503193347 | 85 | 239 | 2.0 | 8.0 | 0.00 | 0.00 | 0.00 | 25 | 1016.1 |
| 20260503192843 | 85 | 196 | 4.0 | 9.0 | 0.00 | 0.00 | 0.00 | 23 | 1016.6 |
| 20260503192338 | 85 | 251 | 6.0 | 8.0 | 0.00 | 0.00 | 0.00 | 23 | 1016.4 |
| 20260503191835 | 84 | 229 | 5.0 | 8.0 | 0.00 | 0.00 | 0.00 | 23 | 1016.5 |
| 20260503191332 | 84 | 271 | 2.0 | 6.0 | 0.00 | 0.00 | 0.00 | 25 | 1016.7 |
| 20260503190829 | 84 | 249 | 4.0 | 9.0 | 0.00 | 0.00 | 0.00 | 24 | 1016.9 |
| 20260503190326 | 84 | 335 | 2.0 | 9.0 | 0.00 | 0.00 | 0.00 | 28 | 1016.6 |
| 20260503185823 | 84 | 278 | 4.0 | 11.0 | 0.00 | 0.00 | 0.00 | 26 | 1016.7 |
| 20260503185320 | 84 | 192 | 2.0 | 10.0 | 0.00 | 0.00 | 0.00 | 26 | 1016.7 |
| 20260503184819 | 84 | 286 | 4.0 | 10.0 | 0.00 | 0.00 | 0.00 | 24 | 1016.9 |
| 20260503184316 | 84 | 304 | 3.0 | 6.0 | 0.00 | 0.00 | 0.00 | 24 | 1016.9 |
| 20260503183811 | 84 | 223 | 2.0 | 9.0 | 0.00 | 0.00 | 0.00 | 26 | 1017.0 |
| 20260503183309 | 84 | 240 | 4.0 | 7.0 | 0.00 | 0.00 | 0.00 | 27 | 1017.1 |
| 20260503182806 | 85 | 129 | 4.0 | 13.0 | 0.00 | 0.00 | 0.00 | 27 | 1017.0 |
| 20260503182306 | 85 | 260 | 5.0 | 10.0 | 0.00 | 0.00 | 0.00 | 26 | 1017.1 |
| 20260503181802 | 85 | 16 | 2.0 | 4.0 | 0.00 | 0.00 | 0.00 | 30 | 1017.3 |
| 20260503181259 | 85 | 284 | 7.0 | 9.0 | 0.00 | 0.00 | 0.00 | 27 | 1017.2 |
| 20260503180755 | 84 | 228 | 7.0 | 11.0 | 0.00 | 0.00 | 0.00 | 28 | 1017.5 |
| 20260503180253 | 83 | 318 | 3.0 | 10.0 | 0.00 | 0.00 | 0.00 | 28 | 1017.6 |
| 20260503175749 | 83 | 207 | 1.0 | 10.0 | 0.00 | 0.00 | 0.00 | 30 | 1017.5 |
| 20260503175248 | 84 | 238 | 5.0 | 9.0 | 0.00 | 0.00 | 0.00 | 29 | 1017.5 |
| 20260503174743 | 83 | 18 | 2.0 | 6.0 | 0.00 | 0.00 | 0.00 | 34 | 1017.7 |
| 20260503174242 | 83 | 270 | 4.0 | 8.0 | 0.00 | 0.00 | 0.00 | 33 | 1017.8 |
| 20260503173742 | 83 | 236 | 4.0 | 6.0 | 0.00 | 0.00 | 0.00 | 34 | 1017.8 |
| 20260503173238 | 83 | 227 | 2.0 | 6.0 | 0.00 | 0.00 | 0.00 | 34 | 1017.9 |
| 20260503172735 | 83 | 354 | 1.0 | 6.0 | 0.00 | 0.00 | 0.00 | 35 | 1018.2 |
| 20260503172232 | 82 | 206 | 2.0 | 4.0 | 0.00 | 0.00 | 0.00 | 37 | 1018.2 |
| 20260503171728 | 81 | 283 | 2.0 | 4.0 | 0.00 | 0.00 | 0.00 | 36 | 1018.3 |
| 20260503171226 | 82 | 308 | 2.0 | 6.0 | 0.00 | 0.00 | 0.00 | 36 | 1018.3 |
| 20260503170723 | 81 | 322 | 2.0 | 4.0 | 0.00 | 0.00 | 0.00 | 37 | 1018.2 |
| 20260503170220 | 80 | 244 | 5.0 | 6.0 | 0.00 | 0.00 | 0.00 | 37 | 1018.2 |
| 20260503160141 | 76 | 269 | 2.0 | 3.0 | 0.00 | 0.00 | 0.00 | 40 | 1018.6 |